This is the latest recevied weather packets stored in our database for station/object KF0PEC-15. If no packets are shown the sender has not sent any weather packets the latest 10 day(s).
| Time | Temp. | Humidity | Pressure | Rain* | Wind** | Luminosity | Snow |
|---|---|---|---|---|---|---|---|
| 1777876257 | 8.33° C | 52% | 1015.2 hPa | 0 mm | - | 0 W/m² | - |
| 1777875755 | 8.33° C | 51% | 1015 hPa | 0 mm | - | 0 W/m² | - |
| 1777875205 | 8.89° C | 49% | 1014.7 hPa | 0 mm | - | 0 W/m² | - |
| 1777874712 | 9.44° C | 48% | 1014.2 hPa | 0 mm | - | 0 W/m² | - |
| 1777874225 | 9.44° C | 47% | 1014.2 hPa | 0 mm | - | 0 W/m² | - |
| 1777873715 | 10° C | 46% | 1014 hPa | 0 mm | - | 0 W/m² | - |
| 1777873230 | 10° C | 45% | 1013.9 hPa | 0 mm | - | 0 W/m² | - |
| 1777872717 | 10° C | 45% | 1014 hPa | 0 mm | - | 0 W/m² | - |
| 1777872130 | 11.11° C | 42% | 1013.3 hPa | 0 mm | - | 0 W/m² | - |
| 1777871585 | 10.56° C | 41% | 1013.4 hPa | 0 mm | - | 0 W/m² | - |
| 1777871037 | 10.56° C | 42% | 1013.5 hPa | 0 mm | - | 0 W/m² | - |
| 1777870520 | 11.11° C | 43% | 1013.3 hPa | 0 mm | - | 0 W/m² | - |
| 1777869965 | 11.11° C | 41% | 1013.3 hPa | 0 mm | - | 0 W/m² | - |
| 1777869385 | 12.22° C | 39% | 1012.8 hPa | 0 mm | - | 0 W/m² | - |
| 1777868797 | 12.22° C | 37% | 1012.4 hPa | 0 mm | - | 0 W/m² | - |
| 1777868270 | 12.78° C | 36% | 1012.3 hPa | 0 mm | - | 0 W/m² | - |
| 1777867677 | 12.78° C | 37% | 1012.2 hPa | 0 mm | - | 0 W/m² | - |
| 1777867157 | 13.33° C | 36% | 1011.6 hPa | 0 mm | - | 0 W/m² | - |
| 1777866620 | 13.33° C | 35% | 1011.4 hPa | 0 mm | - | 0 W/m² | - |
| 1777866097 | 13.89° C | 34% | 1011 hPa | 0 mm | - | 0 W/m² | - |
| 1777865507 | 14.44° C | 34% | 1010.7 hPa | 0 mm | - | 0 W/m² | - |
| 1777864925 | 15° C | 32% | 1010.2 hPa | 0 mm | - | 0 W/m² | - |
| 1777864425 | 15.56° C | 31% | 1009.6 hPa | 0 mm | - | 0 W/m² | - |
| 1777863915 | 16.11° C | 30% | 1009.1 hPa | 0 mm | - | 0 W/m² | - |
| 1777863420 | 16.11° C | 29% | 1008.9 hPa | 0 mm | - | 0 W/m² | - |
* Rain latest hour (hover to see other rain measurements)
** Current wind speed in m/s (hover to see current wind gust speed)